TimeCST,TemperatureF,Dew PointF,Humidity,Sea Level PressureIn,VisibilityMPH,Wind Direction,Wind SpeedMPH,Gust SpeedMPH,PrecipitationIn,Events,Conditions,WindDirDegrees,DateUTC
12:52 AM,39.0,33.1,79,30.15,10.0,Calm,Calm,-,N/A,,Partly Cloudy,0,2012-11-20 06:52:00
1:52 AM,39.2,33.8,81,30.15,10.0,Calm,Calm,-,N/A,,Partly Cloudy,0,2012-11-20 07:52:00
2:52 AM,37.0,32.0,82,30.17,10.0,North,6.9,-,N/A,,Clear,360,2012-11-20 08:52:00
3:52 AM,35.1,30.9,85,30.18,10.0,North,5.8,-,N/A,,Clear,10,2012-11-20 09:52:00
4:52 AM,33.1,30.0,89,30.19,10.0,NNW,3.5,-,N/A,,Clear,340,2012-11-20 10:52:00
5:52 AM,33.1,30.0,89,30.22,9.0,NNE,4.6,-,N/A,,Clear,20,2012-11-20 11:52:00
6:52 AM,30.9,28.9,92,30.22,8.0,Calm,Calm,-,N/A,,Clear,0,2012-11-20 12:52:00
7:52 AM,33.1,30.0,89,30.24,8.0,West,5.8,-,N/A,,Clear,280,2012-11-20 13:52:00
8:52 AM,37.9,33.1,83,30.25,7.0,Calm,Calm,-,N/A,,Clear,0,2012-11-20 14:52:00
9:52 AM,42.8,35.6,76,30.25,9.0,North,4.6,-,N/A,,Clear,350,2012-11-20 15:52:00
10:52 AM,48.0,37.0,66,30.26,10.0,Calm,Calm,-,N/A,,Clear,0,2012-11-20 16:52:00
11:52 AM,50.0,37.9,63,30.22,8.0,Calm,Calm,-,N/A,,Clear,0,2012-11-20 17:52:00
12:52 PM,54.0,37.9,55,30.19,8.0,Calm,Calm,-,N/A,,Partly Cloudy,0,2012-11-20 18:52:00
1:52 PM,59.0,37.0,44,30.17,10.0,SSE,4.6,-,N/A,,Partly Cloudy,150,2012-11-20 19:52:00
2:52 PM,61.0,35.1,38,30.15,10.0,Calm,Calm,-,N/A,,Partly Cloudy,0,2012-11-20 20:52:00
3:52 PM,60.1,32.0,35,30.14,10.0,South,8.1,-,N/A,,Scattered Clouds,170,2012-11-20 21:52:00
4:52 PM,53.1,34.0,48,30.14,10.0,SE,8.1,-,N/A,,Scattered Clouds,140,2012-11-20 22:52:00
5:52 PM,50.0,33.1,52,30.15,10.0,SSE,8.1,-,N/A,,Mostly Cloudy,150,2012-11-20 23:52:00
6:52 PM,46.9,32.0,56,30.16,10.0,SSE,6.9,-,N/A,,Mostly Cloudy,160,2012-11-21 00:52:00
7:52 PM,46.0,33.1,61,30.17,10.0,SSE,8.1,-,N/A,,Scattered Clouds,160,2012-11-21 01:52:00
8:52 PM,45.0,33.1,63,30.16,10.0,SSE,8.1,-,N/A,,Partly Cloudy,160,2012-11-21 02:52:00
9:52 PM,44.1,35.1,71,30.16,10.0,SSE,10.4,-,N/A,,Clear,160,2012-11-21 03:52:00
10:52 PM,44.1,35.1,71,30.15,10.0,SSE,9.2,-,N/A,,Clear,160,2012-11-21 04:52:00
11:52 PM,44.1,36.0,73,30.14,10.0,SSE,12.7,-,N/A,,Partly Cloudy,150,2012-11-21 05:52:00